Regional Weather Roundup
Issued by NWS Jackson, KY

Home | Current Version | Previous Version | Text Only | Print | Product List | Glossary On
Versions: 1 2 3 4 5 6 7 8 9 10 11 12 13 14 15 16 17 18 19 20 21 22 23 24 25 26 27 28 29 30 31 32 33 34 35 36 37 38 39 40 41 42 43 44 45 46 47 48 49 50
000
ASUS43 KJKL 120219
RWRJKL

EAST KENTUCKY HOURLY WEATHER ROUNDUP
NATIONAL WEATHER SERVICE JACKSON KY
1000 PM EDT FRI JUL 11 2014

NOTE: "FAIR" INDICATES FEW OR NO CLOUDS BELOW 12,000 FEET WITH
NO SIGNIFICANT WEATHER AND/OR OBSTRUCTIONS TO VISIBILITY.

* THESE REPORTS ARE NOT UNDER NWS QUALITY CONTROL AND MAY NOT
  REPORT WEATHER SUCH AS PRECIPITATION AND FOG.

KYZ079-080-083-085-087-088-110-112-115-119-120-120300
...EASTERN KENTUCKY...

CITY           SKY/WX    TMP DP  RH WIND       PRES   REMARKS
JACKSON        CLEAR     76  60  57 CALM      30.21R
LONDON         CLEAR     76  59  55 CALM      30.20R
SOMERSET*      CLEAR     73  59  60 CALM      30.18R
MONTICELLO*    CLEAR     69  65  87 CALM      30.19R
MIDDLESBORO*   CLEAR     72  63  72 W3        30.20R
HARLAN APT*    MOCLDY    72  64  78 MISG      30.22R
BIG SANDY*     CLEAR     73  63  71 CALM      30.19S
MOREHEAD APT*    N/A     75  59  57 E3        30.20R
$$

KYZ035-036-041-042-044-050-067-078-099-120300
...CENTRAL KENTUCKY...

CITY           SKY/WX    TMP DP  RH WIND       PRES   REMARKS
MT STERLING*   CLEAR     72  63  73 CALM      30.19R
FLEMING/MASON* CLEAR     75  62  62 E3        30.19R
DANVILLE*      CLEAR     72  63  73 CALM      30.19R
RICHMOND*      CLEAR     75  57  53 S5        30.18R
LEXINGTON      CLEAR     78  61  55 CALM      30.18R
FRANKFORT      CLEAR     73  64  73 CALM      30.16R
$$

KYZ091>093-OHZ055-061-077-WVZ005-015-034-035-042-120300
...SOUTHERN OHIO/WEST VIRGINIA...

CITY           SKY/WX    TMP DP  RH WIND       PRES   REMARKS
COVINGTON      MOCLDY    75  57  53 NW3       30.17R
COLUMBUS       MOCLDY    77  56  48 NE3       30.18R
DAYTON         MOCLDY    75  60  59 N3        30.19R
WILMINGTON     MOCLDY    72  60  66 E3        30.18R
HUNTINGTON     CLEAR     76  60  57 NE3       30.18R
CHARLESTON     PTCLDY    74  68  81 CALM      30.18R
PINEVILLE*     CLEAR     69  67  96 MISG      30.28R
BECKLEY        CLEAR     68  59  73 SE3       30.27R
BLUEFIELD      MOCLDY    74  61  63 SE5       30.30R
$$

VAZ002-007-008-TNZ017-027-036-066-071-120300
...SOUTHWEST VIRGINIA/EAST TENNESSEE...

CITY           SKY/WX    TMP DP  RH WIND       PRES   REMARKS
WISE*          CLEAR     72  59  64 N3        30.29R
JONESVILLE*      N/A     72  66  83 CALM      30.22R
ABINGDON*      CLEAR     70  63  77 CALM      30.25R
BRISTOL        CLEAR     70  60  70 CALM      30.20R
KNOXVILLE      PTCLDY    78  62  57 CALM      30.15R
OAK RIDGE      CLEAR     76  65  68 CALM      30.18R
CROSSVILLE     CLEAR     71  64  78 CALM      30.23R
NASHVILLE      PTCLDY    85  62  46 N7        30.15R
$$

...KEY TO REMARKS...
VSB - VISIBILITY IN MILES
WCI - WIND CHILL INDEX
HX  - HEAT INDEX

$$


USA.gov is the U.S. government's official web portal to all federal, state and local government web resources and services.